Regional Weather Roundup
Issued by NWS Cleveland, OH

Home | Current Version | Previous Version | Text Only | Print | Product List | Glossary Off
Versions: 1 2 3 4 5 6 7 8 9 10 11 12 13 14 15 16 17 18 19 20 21 22 23 24 25 26 27 28 29 30 31 32 33 34 35 36 37 38 39 40 41 42 43 44 45 46 47 48 49 50

092
ASUS41 KCLE 032012
RWRCLE
OHIO REGIONAL WEATHER ROUNDUP
NATIONAL WEATHER SERVICE WILMINGTON, OH
300 PM EST SAT DEC 03 2016

NOTE: "FAIR" INDICATES FEW OR NO CLOUDS BELOW 12,000 FEET WITH NO
SIGNIFICANT WEATHER AND/OR OBSTRUCTIONS TO VISIBILITY.

OHZ001>008-015>018-024>027-034-035-043-044-032100-
   NORTHWEST OHIO

CITY           SKY/WX    TMP DP  RH WIND       PRES   REMARKS
DEFIANCE       CLOUDY    39  26  59 SW7       30.31F
FINDLAY        CLOUDY    39  26  59 W12       30.30F
TOLEDO EXPRESS CLOUDY    37  29  72 W8        30.31R
TOLEDO EXEC    CLOUDY    38  29  70 W7        30.32R
LIMA           CLOUDY    37  27  67 W10       30.31S
$$

OHZ009>014-019>023-028>033-038-089-032100-
   NORTHEAST OHIO

CITY           SKY/WX    TMP DP  RH WIND       PRES   REMARKS
CLE-HOPKINS    CLOUDY    40  29  64 SW10      30.32R
CLE-LAKEFRONT  CLOUDY    39  32  76 W12       30.30R
CUY CO. ARPT   CLOUDY    39  36  87 W7        30.29R
LORAIN-ELYRIA  CLOUDY    37  28  70 W9        30.31R
ASHTABULA      CLOUDY    40  34  79 W7        30.26R
AKRON-CANTON   CLOUDY    38  28  67 W8        30.29R
WOOSTER        CLOUDY    37  28  70 W8        30.30R
MANSFIELD      CLOUDY    36  27  69 W7        30.29S
YOUNGSTOWN     CLOUDY    38  31  76 W8        30.26S
$$

OHZ042-051>053-060>062-070>072-077>081-032100-
  SOUTHWEST OHIO

CITY           SKY/WX    TMP DP  RH WIND       PRES   REMARKS
CINC-COVINGTON CLOUDY    41  30  65 W6        30.31F
CINC-LUNKEN    CLOUDY    42  30  62 CALM      30.34F
HAMILTON       CLOUDY    42  28  57 VRB3      30.34F
DAYTON         CLOUDY    38  27  64 W7        30.32F
WRIGHT-PAT AFB CLOUDY    39  27  61 SW7       30.31F
DAYTON GENERAL CLOUDY    39  25  57 SW6       30.31F
WILMINGTON     CLOUDY    39  27  62 NW6       30.30F
$$

OHZ036-037-039>041-045>050-054>059-063>069-073>076-082>088-032100-
  CENTRAL AND SOUTHEAST OHIO

CITY           SKY/WX    TMP DP  RH WIND       PRES   REMARKS
COLUMBUS       CLOUDY    39  26  59 W3        30.31S
OSU AIRPORT    CLOUDY    39  28  64 W8        30.31S
BOLTON FIELD   CLOUDY    39  28  65 W5        30.31F
RICKENBACK AFB CLOUDY    39  26  59 W5        30.31F
NEWARK         CLOUDY    39  27  62 W7        30.31S
MARION         CLOUDY    37  24  59 W8        30.31S
LANCASTER      CLOUDY    40  27  59 W3        30.32F
ZANESVILLE     CLOUDY    39  26  59 W3        30.32R
NEW PHILLY     CLOUDY    38  28  67 W6        30.32R
$$




USA.gov is the U.S. government's official web portal to all federal, state and local government web resources and services.